Home   Weather   Nipigon   Past weeks

Flag for Canada Past Weather in Nipigon, Ontario, Canada — Yesterday and Last 2 Weeks

Now
60 °F

Cool.


Feels Like: 60 °F
Forecast: 56 / 62 °F
Wind: 10 mph from South

Location: Katatota Island

Current Time: Sep 25, 2016 at 11:46:21 AM

Latest Report: Sep 25, 2016 at 10:00 AM


Visibility: N/A

Pressure: 29.96 "Hg

Humidity: 82%

Dew Point: 55 °F

Location of NipigonLocation

Past Weather in Nipigon — Graph

°F

Nipigon Temperature Yesterday

Maximum temperature yesterday: 64 °F (at 2:00 PM)
Minimum temperature yesterday: 48 °F (at 6:00 AM)
Average temperature yesterday: 56 °F

High & Low Weather Summary for the Past Weeks

 TemperatureHumidityPressure
High69 °F (Sep 11, 3:00 PM)100% (Sep 16, 6:00 AM)30.35 "Hg (Sep 16, 6:00 AM)
Low47 °F (Sep 23, 7:00 AM)48% (Sep 14, 7:00 PM)29.58 "Hg (Sep 19, 1:00 PM)
Average59 °F78%29.99 "Hg
* Reported Sep 10 10:00 AM — Sep 25 10:00 AM, Nipigon, Weather by CustomWeather, © 2016

Note: Actual official high and low records may vary slightly from our data, if they occured in-between our weather recording intervals... More about our weather records

Advertising

Nipigon Weather History for the Previous 24 Hours

Scroll right to see more
 ConditionsComfort  
Time TempWeatherWind HumidityBarometerVisibility
10:00 AM
Sun, Sep 25
60 °FCool.10 mph82%29.96 "HgN/A
9:00 AM59 °FCool.10 mph83%29.98 "HgN/A
8:00 AM59 °FCool.9 mph83%30.01 "HgN/A
7:00 AM59 °FCool.7 mph83%30.03 "HgN/A
6:00 AM59 °FCool.8 mph84%30.03 "HgN/A
5:00 AM58 °FCool.9 mph86%30.06 "HgN/A
4:00 AM59 °FCool.6 mph85%30.07 "HgN/A
3:00 AM58 °FCool.7 mph84%30.08 "HgN/A
2:00 AM58 °FCool.10 mph85%30.10 "HgN/A
1:00 AM56 °FCool.14 mph89%30.12 "HgN/A
12:00 AM58 °FCool.15 mph84%30.14 "HgN/A
11:00 PM
Sat, Sep 24
59 °FCool.9 mph83%30.18 "HgN/A
10:00 PM59 °FCool.9 mph81%30.19 "HgN/A
9:00 PM58 °FCool.7 mph79%30.18 "HgN/A
8:00 PM59 °FCool.8 mph75%30.17 "HgN/A
7:00 PM59 °FCool.5 mph71%30.19 "HgN/A
6:00 PM60 °FCool.6 mph65%30.21 "HgN/A
5:00 PM61 °FCool.7 mph63%30.21 "HgN/A
4:00 PM63 °FMild.3 mph64%30.22 "HgN/A
2:00 PM64 °FMild.5 mph52%30.25 "HgN/A
1:00 PM62 °FRefreshingly cool.6 mph57%30.27 "HgN/A
12:00 PM58 °FRefreshingly cool.3 mph59%30.29 "HgN/A
11:00 AM58 °FRefreshingly cool.5 mph56%30.29 "HgN/A
Weather by CustomWeather, © 2016

See weather overviewHow to use our weather pages